This demonstration page uses our WeatherBlox Daily Observations layout. Learn more.

Left ArrowRight Arrow

Hourly Observations for July 7, 2022

Temp ( °F °C ) Dew Point ( °F °C ) Humidity (%) Winds ( mph kmh ) Pressure ( in mb ) Visibility ( mi km ) Precip ( " mm )
12:52 am 00:52 Mostly Cloudy 74 23.3 72 22.2 94 94 E 3 6 29.93 1014 10 16 0.00 0.00
1:52 am 01:52 Cloudy 74 23.3 71 21.7 91 91 SE 6 9 29.92 1013 10 16 0.00 0.00
2:18 am 02:18 Cloudy 74 23.3 71 21.7 91 91 ESE 5 7 29.91 1013 10 16 0.00 0.00
2:35 am 02:35 Cloudy 74 23.3 71 21.7 91 91 ESE 6 9 29.90 1013 10 16 0.00 0.00
2:43 am 02:43 Cloudy 74 23.3 71 21.7 91 91 ESE 5 7 29.90 1013 10 16 0.00 0.00
2:52 am 02:52 Cloudy 74 23.3 71 21.7 91 91 E 5 7 29.91 1013 10 16 0.00 0.00
3:52 am 03:52 Cloudy 73 22.8 71 21.7 94 94 ESE 9 15 29.91 1013 10 16 0.00 0.00
4:05 am 04:05 Mostly Cloudy 73 22.8 71 21.7 94 94 E 9 15 29.88 1012 10 16 0.00 0.00
4:13 am 04:13 Cloudy 73 22.8 71 21.7 94 94 E 9 15 29.89 1012 10 16 0.00 0.00
4:29 am 04:29 Cloudy 73 22.8 71 21.7 94 94 ESE 8 13 29.88 1012 10 16 0.00 0.00
4:52 am 04:52 Cloudy with Light Rain 73 22.8 71 21.7 94 94 SE 9 15 29.89 1012 10 16 0.00 0.00
5:52 am 05:52 Cloudy 73 22.8 72 22.2 96 96 SE 8 13 29.92 1013 10 16 0.01 0.25
6:46 am 06:46 Cloudy with Rain 73 23 72 22 94 94 SSE 10 17 29.92 1013 7 11 0.00 0.00
6:48 am 06:48 Cloudy with Thunderstorms 73 23 72 22 94 94 SSE 13 20 29.92 1013 7 11 0.00 0.00
6:52 am 06:52 Cloudy with Thunderstorms 73 22.8 72 22.2 96 96 SSE 10 17 29.93 1014 4 6 0.01 0.25
7:02 am 07:02 Cloudy with Strong Thunderstorms 73 22.8 72 22.2 96 96 S 5 7 29.92 1013 3 4 0.03 0.76
7:16 am 07:16 Cloudy with Light Rain 72 22.2 72 22.2 100 100 SE 6 9 29.92 1013 4 6 0.12 3.05
7:52 am 07:52 Cloudy with Light Rain 72 22.2 72 22.2 100 100 E 5 7 29.93 1014 5 8 0.30 7.62
8:52 am 08:52 Cloudy with Light Rain 73 22.8 72 22.2 96 96 ESE 10 17 29.91 1013 6 10 0.02 0.51
9:52 am 09:52 Cloudy with Light Rain 73 22.8 72 22.2 96 96 SSE 5 7 29.91 1013 8 13 0.01 0.25
10:52 am 10:52 Cloudy 75 23.9 71 21.7 88 88 S 9 15 29.92 1013 10 16 0.00 0.00
11:52 am 11:52 Cloudy with Light Rain 76 24.4 71 21.7 85 85 SE 7 11 29.92 1013 10 16 0.00 0.00
12:52 pm 12:52 Mostly Cloudy 79 26.1 72 22.2 79 79 Calm 29.91 1013 10 16 0.00 0.00
1:52 pm 13:52 Mostly Cloudy 83 28.3 72 22.2 70 70 S 9 15 29.90 1013 10 16 0.00 0.00
2:52 pm 14:52 Mostly Cloudy 84 28.9 71 21.7 65 65 S 14 22 29.90 1012 10 16 0.00 0.00
3:52 pm 15:52 Mostly Cloudy 84 28.9 71 21.7 65 65 S 9 15 29.88 1012 10 16 0.00 0.00
4:52 pm 16:52 Mostly Cloudy 84 28.9 70 21.1 63 63 SSE 15 24 29.88 1012 10 16 0.00 0.00
5:52 pm 17:52 Mostly Cloudy 82 27.8 71 21.7 69 69 S 13 20 29.89 1012 10 16 0.00 0.00
6:52 pm 18:52 Mostly Cloudy 82 27.8 71 21.7 69 69 SSE 7 11 29.87 1012 10 16 0.00 0.00
7:52 pm 19:52 Mostly Cloudy 81 27.2 72 22.2 74 74 ESE 7 11 29.86 1011 10 16 0.00 0.00
8:52 pm 20:52 Mostly Cloudy 79 26.1 73 22.8 82 82 E 7 11 29.88 1012 10 16 0.00 0.00
9:52 pm 21:52 Mostly Cloudy 80 26.7 73 22.8 79 79 Calm 29.90 1013 10 16 0.00 0.00
10:52 pm 22:52 Cloudy with Light Rain 74 23.3 73 22.8 97 97 N 8 13 29.91 1013 10 16 0.00 0.00
11:31 pm 23:31 Cloudy 74 23.3 73 22.8 97 97 N 7 11 29.90 1013 10 16 0.00 0.00
11:52 pm 23:52 Mostly Cloudy 75 23.9 74 23.3 96 96 NE 9 15 29.91 1013 10 16 0.00 0.00

Powered by AerisWeather